Location: Newark
(51.3318°N, 0.0053°E)
Time: 08:02:21
(UTC+00:00)

CAS-6 - Pass Details

Date: 03 July 2022
Orbit: 613 x 634 km, 97.9° (Epoch: 17 August)

Event Time Altitude Azimuth Distance (km) Brightness Sun altitude
Exits shadow 22:16:15 16° 174° (S) 1,631 ? -12.1°
Maximum altitude 22:19:40 71° 257° (WSW) 664 ? -12.3°
Drops below altitude 10° 22:24:01 10° 342° (NNW) 2,001 ? -12.6°
Sets 22:26:14 0° 345° (NNW) 2,909 ? -12.7°
